Albion, NE

8:00 AM CST on December 11, 2016 (GMT -0600)
Albion Municipal

Weather History for KBVN - May, 2013

Change the Weather History Date:

Saturday, May 11, 2013

  Actual Average (KOFK) Record (KOFK)
Temperature  
Mean Temperature 50 °F -  
Max Temperature 60 °F 70 °F 98 °F (1915)
Min Temperature 39 °F 47 °F 27 °F (1946)
Degree Days  
Heating Degree Days 16    
Moisture  
Dew Point 30 °F    
Average Humidity 44    
Maximum Humidity 75    
Minimum Humidity 19    
Precipitation  
Precipitation 0.00 in - - ()
Sea Level Pressure  
Sea Level Pressure 30.25 in    
Wind  
Wind Speed 11 mph (North)    
Max Wind Speed 24 mph    
Max Gust Speed 34 mph    
Visibility 10 miles    
Events      
Averages and records for this station are not official NWS values.
T = Trace of Precipitation, MM = Missing Value Source: NWS Daily Summary

Daily Weather History Graph

Daily Weather History Graph

Search for Another Location

Airport or City:

Trip Planner

Search our weather history database for the weather conditions in past years. The results will help you decide how hot, cold, wet, or windy it might be!

Date:

Astronomy

May. 11, 2013 Rise Set
Actual Time 6:16 AM CDT 8:41 PM CDT
Civil Twilight 5:45 AM CDT 9:12 PM CDT
Nautical Twilight 5:06 AM CDT 9:51 PM CDT
Astronomical Twilight 4:22 AM CDT 10:35 PM CDT
Moon 7:24 AM CDT 10:23 PM CDT
Length of Visible Light 15h 27m
Length of Day
14h 25m
Waxing Crescent, 3% of the Moon is Illuminated
May 11
Waxing Crescent
May 17
First Quarter
May 24
Full
May 31
Last Quarter
Jun 8
New

Hourly Weather History & Observations

Time (CDT) Temp. Windchill Dew Point Humidity Pressure Visibility Wind Dir Wind Speed Gust Speed Precip Events Conditions
12:15 AM 55.6 °F - 45.1 °F 68% 30.09 in 10.0 mi NW 6.9 mph - N/A   Mostly Cloudy
12:35 AM 59.0 °F - 45.5 °F 61% 30.10 in 10.0 mi NNW 9.2 mph - N/A   Clear
12:55 AM 58.1 °F - 45.1 °F 62% 30.11 in 10.0 mi NNW 5.8 mph - N/A   Clear
1:15 AM 57.2 °F - 45.3 °F 65% 30.11 in 10.0 mi NNW 8.1 mph - N/A   Clear
1:35 AM 58.5 °F - 45.0 °F 61% 30.12 in 10.0 mi North 13.8 mph 17.3 mph N/A   Clear
1:55 AM 59.0 °F - 43.9 °F 57% 30.13 in 10.0 mi North 15.0 mph 18.4 mph N/A   Scattered Clouds
2:15 AM 58.3 °F - 41.9 °F 54% 30.13 in 10.0 mi North 16.1 mph 23.0 mph N/A   Scattered Clouds
2:35 AM 57.4 °F - 41.0 °F 54% 30.15 in 10.0 mi North 16.1 mph 21.9 mph N/A   Clear
2:55 AM 56.1 °F - 40.5 °F 56% 30.15 in 10.0 mi North 13.8 mph 19.6 mph N/A   Clear
3:15 AM 55.0 °F - 40.6 °F 58% 30.17 in 10.0 mi North 11.5 mph - N/A   Clear
3:35 AM 54.3 °F - 41.0 °F 61% 30.17 in 10.0 mi North 10.4 mph - N/A   Clear
3:55 AM 52.9 °F - 41.0 °F 64% 30.18 in 10.0 mi North 8.1 mph - N/A   Clear
4:15 AM 51.8 °F - 41.0 °F 67% 30.18 in 10.0 mi North 6.9 mph - N/A   Clear
4:35 AM 50.9 °F - 41.2 °F 69% 30.19 in 10.0 mi North 8.1 mph - N/A   Clear
4:55 AM 50.9 °F - 40.1 °F 67% 30.19 in 10.0 mi North 11.5 mph 16.1 mph N/A   Clear
5:15 AM 49.6 °F - 39.4 °F 68% 30.20 in 10.0 mi North 6.9 mph - N/A   Clear
5:35 AM 48.4 °F - 39.6 °F 72% 30.21 in 10.0 mi NNW 4.6 mph - N/A   Clear
5:55 AM 47.7 °F - 39.2 °F 72% 30.23 in 10.0 mi NNW 3.5 mph - N/A   Clear
6:15 AM 46.2 °F 45.0 °F 38.3 °F 74% 30.24 in 10.0 mi NNW 3.5 mph - N/A   Clear
6:35 AM 45.7 °F 42.7 °F 38.1 °F 75% 30.25 in 10.0 mi NNW 5.8 mph - N/A   Clear
6:55 AM 46.6 °F - 38.3 °F 73% 30.26 in 10.0 mi NNW 5.8 mph - N/A   Clear
7:15 AM 46.2 °F 42.7 °F 38.5 °F 74% 30.27 in 10.0 mi NW 6.9 mph - N/A   Clear
7:35 AM 47.8 °F - 36.0 °F 63% 30.28 in 10.0 mi North 10.4 mph - N/A   Clear
7:55 AM 48.4 °F - 34.9 °F 60% 30.29 in 10.0 mi North 13.8 mph 18.4 mph N/A   Clear
8:15 AM 49.3 °F - 34.9 °F 58% 30.30 in 10.0 mi North 8.1 mph 16.1 mph N/A   Clear
8:35 AM 50.7 °F - 34.9 °F 55% 30.30 in 10.0 mi North 15.0 mph - N/A   Clear
8:55 AM 51.8 °F - 34.0 °F 51% 30.30 in 10.0 mi North 10.4 mph 17.3 mph N/A   Clear
9:15 AM 53.6 °F - 32.2 °F 44% 30.30 in 10.0 mi North 12.7 mph 19.6 mph N/A   Clear
9:35 AM 54.5 °F - 28.8 °F 37% 30.31 in 10.0 mi NNW 12.7 mph 18.4 mph N/A   Clear
9:55 AM 55.4 °F - 29.5 °F 37% 30.31 in 10.0 mi NNW 15.0 mph 20.7 mph N/A   Clear
10:15 AM 56.3 °F - 28.4 °F 34% 30.31 in 10.0 mi North 19.6 mph 27.6 mph N/A   Clear
10:35 AM 56.1 °F - 28.0 °F 34% 30.32 in 10.0 mi NNW 20.7 mph 28.8 mph N/A   Clear
10:55 AM 56.1 °F - 28.4 °F 35% 30.32 in 10.0 mi NNW 24.2 mph 31.1 mph N/A   Clear
11:15 AM 56.5 °F - 28.0 °F 34% 30.32 in 10.0 mi North 23.0 mph 32.2 mph N/A   Clear
11:35 AM 57.2 °F - 29.5 °F 35% 30.32 in 10.0 mi North 20.7 mph 27.6 mph N/A   Clear
11:55 AM 57.4 °F - 29.5 °F 35% 30.32 in 10.0 mi NNW 16.1 mph 26.5 mph N/A   Clear
12:15 PM 57.9 °F - 28.6 °F 33% 30.32 in 10.0 mi NNW 23.0 mph 28.8 mph N/A   Clear
12:35 PM 57.6 °F - 28.4 °F 33% 30.32 in 10.0 mi NNW 21.9 mph 33.4 mph N/A   Clear
12:55 PM 58.1 °F - 29.3 °F 33% 30.32 in 10.0 mi NNW 21.9 mph 31.1 mph N/A   Clear
1:15 PM 58.3 °F - 30.0 °F 34% 30.31 in 10.0 mi North 20.7 mph 26.5 mph N/A   Clear
1:35 PM 58.3 °F - 26.8 °F 30% 30.31 in 10.0 mi North 19.6 mph 31.1 mph N/A   Clear
1:55 PM 59.0 °F - 26.8 °F 29% 30.31 in 10.0 mi NNW 20.7 mph 27.6 mph N/A   Clear
2:15 PM 59.0 °F - 25.3 °F 28% 30.31 in 10.0 mi NNW 20.7 mph 34.5 mph N/A   Clear
2:35 PM 60.1 °F - 24.6 °F 26% 30.30 in 10.0 mi NNW 21.9 mph 29.9 mph N/A   Clear
2:55 PM 59.9 °F - 22.3 °F 24% 30.30 in 10.0 mi NNW 18.4 mph 29.9 mph N/A   Clear
3:15 PM 60.1 °F - 21.0 °F 22% 30.30 in 10.0 mi North 18.4 mph 29.9 mph N/A   Clear
3:35 PM 60.4 °F - 19.8 °F 21% 30.30 in 10.0 mi North 17.3 mph 29.9 mph N/A   Clear
3:55 PM 60.1 °F - 21.0 °F 22% 30.30 in 10.0 mi NW 10.4 mph 21.9 mph N/A   Clear
4:15 PM 60.4 °F - 19.6 °F 21% 30.29 in 10.0 mi North 18.4 mph 25.3 mph N/A   Clear
4:35 PM 60.8 °F - 19.6 °F 20% 30.28 in 10.0 mi North 11.5 mph 23.0 mph N/A   Clear
4:55 PM 60.1 °F - 19.4 °F 21% 30.27 in 10.0 mi North 12.7 mph 21.9 mph N/A   Clear
5:15 PM 60.1 °F - 17.1 °F 19% 30.27 in 10.0 mi North 11.5 mph 20.7 mph N/A   Clear
5:35 PM 59.9 °F - 18.5 °F 20% 30.27 in 10.0 mi NNW 11.5 mph 23.0 mph N/A   Clear
5:55 PM 60.3 °F - 18.1 °F 20% 30.27 in 10.0 mi North 13.8 mph 20.7 mph N/A   Clear
6:15 PM 59.9 °F - 18.9 °F 20% 30.27 in 10.0 mi North 13.8 mph 21.9 mph N/A   Clear
6:35 PM 59.4 °F - 18.0 °F 20% 30.26 in 10.0 mi North 10.4 mph 21.9 mph N/A   Clear
6:55 PM 58.8 °F - 17.6 °F 20% 30.26 in 10.0 mi North 13.8 mph 21.9 mph N/A   Clear
7:15 PM 58.5 °F - 18.7 °F 21% 30.26 in 10.0 mi North 12.7 mph 17.3 mph N/A   Clear
7:35 PM 57.6 °F - 18.3 °F 22% 30.26 in 10.0 mi North 12.7 mph - N/A   Clear
7:55 PM 56.7 °F - 18.3 °F 22% 30.25 in 10.0 mi North 10.4 mph - N/A   Clear
8:15 PM 55.4 °F - 19.8 °F 25% 30.26 in 10.0 mi North 8.1 mph - N/A   Clear
8:35 PM 52.5 °F - 23.5 °F 32% 30.26 in 10.0 mi North 4.6 mph - N/A   Clear
9:15 PM 47.5 °F - 26.4 °F 44% 30.26 in 10.0 mi NNE 8.1 mph - N/A   Clear
9:35 PM 46.6 °F - 26.1 °F 45% 30.26 in 10.0 mi NNE 5.8 mph - N/A   Clear
9:55 PM 45.5 °F 44.2 °F 27.1 °F 49% 30.26 in 10.0 mi NNE 3.5 mph - N/A   Clear
10:15 PM 43.0 °F 41.3 °F 27.3 °F 54% 30.26 in 10.0 mi North 3.5 mph - N/A   Clear
10:35 PM 43.0 °F 38.8 °F 26.8 °F 53% 30.26 in 10.0 mi NE 6.9 mph - N/A   Clear
10:55 PM 43.7 °F - 27.9 °F 54% 30.26 in 10.0 mi Calm Calm - N/A   Clear
11:15 PM 39.0 °F - 29.3 °F 68% 30.26 in 10.0 mi Calm Calm - N/A   Clear
11:35 PM 40.6 °F 37.5 °F 27.0 °F 58% 30.25 in 10.0 mi East 4.6 mph - N/A   Clear
11:55 PM 44.2 °F 41.8 °F 25.3 °F 47% 30.25 in 10.0 mi NE 4.6 mph - N/A   Clear